Location: Praha
(50.0830°N, 14.4670°E)
Time: 13:28:22
(UTC+02:00)

ISS - Pass Details

Date: 08 July 2019
Orbit: 409 x 418 km, 51.6° (Epoch: 21 July)

Event Time Altitude Azimuth Distance (km) Brightness Sun altitude
Exits shadow 03:17:11 18° 237° (WSW) 1,091 -2.2 -11.9°
Maximum altitude 03:19:30 65° 158° (SSE) 455 -3.8 -11.7°
Drops below altitude 10° 03:22:48 10° 76° (ENE) 1,479 -0.3 -11.4°
Sets 03:24:53 0° 73° (ENE) 2,341 0.9 -11.3°
